Location: Kra?nica
(53.4833°N, 14.6167°E)
Time: 20:15:18
(UTC+00:00)

Cosmos 2237 - Pass Details

Date: 23 May 2024
Orbit: 844 x 857 km, 70.8° (Epoch: 20 June)

Event Time Altitude Azimuth Distance (km) Brightness Sun altitude
Rises 00:10:10 0° 327° (NNW) 3,441 8.0 -14.3°
Reaches altitude 10° 00:12:38 10° 328° (NNW) 2,502 7.2 -14.2°
Maximum altitude 00:18:25 87° 57° (ENE) 866 4.3 -13.9°
Drops below altitude 10° 00:24:10 10° 148° (SSE) 2,487 6.3 -13.6°
Enters shadow 00:25:54 - 149° (SSE) 3,149 6.8 -13.5°
